Wind_Speed
48 48 48 48 45 46 42 38 38 36 40 41 40 35 35 37 37 37 38 38 37 36 35 35 33 31 28 26 25 25 25 24 24 25 23 22 20 19 21 23 23 23 15
50 51 51 52 53 50 49 47 45 44 45 45 45 39 37 39 40 39 38 39 39 39 38 38 36 35 32 31 29 27 25 25 25 24 25 24 22 21 22 23 25 23 24
55 55 56 55 52 53 48 49 53 46 40 40 43 47 46 40 41 42 42 41 43 41 41 39 37 37 36 34 31 31 28 27 26 25 24 25 24 23 20 22 24 25 26
63 63 63 65 64 57 55 55 57 42 40 41 42 43 45 40 47 47 46 44 46 43 42 39 37 37 37 36 33 33 30 30 28 26 24 24 25 24 23 22 24 26 27
69 69 69 70 64 65 62 58 64 52 50 48 47 44 47 49 49 50 52 52 48 45 41 39 41 40 37 36 34 33 31 31 30 27 25 24 25 25 23 23 24 26 25
70 73 75 73 69 71 71 62 64 66 61 56 54 52 51 57 51 52 54 51 48 44 41 42 43 40 39 37 36 34 33 32 30 28 25 24 24 25 24 23 23 24 24
70 73 75 78 78 70 71 73 66 61 53 67 68 65 59 57 55 51 53 50 49 44 40 43 44 44 44 42 39 38 34 33 30 28 28 24 24 23 24 24 23 21 21
69 70 73 77 79 80 78 76 73 67 61 64 61 71 62 59 56 50 46 51 47 40 37 37 41 40 38 41 40 39 35 34 30 26 28 26 23 23 23 23 21 18 20
67 70 71 72 76 79 80 83 87 82 71 72 49 41 54 51 57 62 56 52 48 46 44 40 33 38 37 36 35 41 41 35 30 25 25 27 24 21 23 23 21 17 16
65 67 67 68 73 74 77 81 83 82 84 83 85 79 67 50 58 61 56 57 55 51 55 49 46 43 37 35 36 35 33 33 31 24 24 25 24 22 22 24 24 23 22
53 55 60 62 63 68 70 67 70 76 82 84 82 80 80 75 65 64 67 64 64 66 57 54 49 46 40 39 37 35 34 34 31 27 25 24 25 23 23 25 25 25 26
54 55 52 54 54 56 58 58 59 62 61 63 73 77 78 77 73 69 73 79 73 57 64 58 53 49 43 43 41 39 38 37 33 29 27 24 26 26 25 25 25 24 25
46 51 51 53 53 55 54 54 55 64 54 61 63 63 61 63 61 67 70 69 71 56 54 55 51 52 48 46 42 44 44 43 40 33 29 25 26 30 29 27 27 25 25
44 46 49 53 53 54 54 53 51 55 62 53 47 44 48 52 55 54 58 56 58 61 65 70 56 46 47 47 53 50 46 42 40 36 34 29 26 30 33 31 29 26 26
35 35 38 43 49 54 56 54 54 54 55 57 54 51 52 56 56 57 60 59 62 64 65 69 73 59 53 49 47 53 51 43 39 39 36 33 29 32 36 36 34 32 29
27 28 32 32 34 43 52 55 58 58 55 54 57 57 55 55 58 59 55 60 63 66 66 62 63 62 66 63 57 51 51 46 44 43 42 38 35 35 39 39 37 35 32
23 23 24 26 30 34 35 41 50 54 54 56 59 61 62 62 64 66 66 66 67 69 64 62 64 68 68 65 62 61 58 55 51 47 45 45 43 38 40 42 39 38 35
17 19 22 24 24 25 26 29 32 36 40 42 47 53 57 61 65 70 74 75 75 74 71 69 67 65 63 67 67 68 67 63 60 54 50 49 45 41 41 42 42 40 38
20 22 21 21 22 26 28 29 30 29 30 33 38 42 44 44 45 51 59 64 69 77 78 74 70 68 67 64 65 67 65 66 61 58 53 52 48 42 40 42 43 43 41
22 22 20 18 16 18 23 25 26 28 30 31 29 30 35 37 35 34 39 46 52 57 65 75 73 67 64 67 71 67 66 63 65 63 59 57 54 52 47 42 45 45 43
21 21 20 16 16 14 11 11 14 16 19 21 21 23 25 25 25 27 30 32 35 40 44 60 70 64 58 54 55 60 58 61 60 63 62 60 60 56 51 46 46 47 45
18 16 14 10 11 9 8 9 10 13 15 17 18 18 18 17 16 17 19 21 23 29 36 45 57 67 59 55 52 51 51 52 55 57 57 57 57 55 53 51 50 48 47
11 8 6 4 7 7 7 7 8 9 12 15 15 14 12 13 15 16 15 17 20 24 30 41 45 55 61 58 57 56 53 53 58 60 58 58 57 56 55 54 52 50 48
13 10 7 4 4 3 3 6 10 11 11 11 11 11 11 12 13 14 15 16 18 21 26 31 37 46 58 60 59 58 58 59 61 58 57 58 60 57 55 55 52 50 48
12 8 7 7 7 7 7 7 10 9 10 11 14 16 15 14 15 17 18 18 19 21 23 27 31 37 40 40 40 40 43 48 52 57 60 62 61 59 57 55 51 49 46
13 9 10 8 8 11 12 11 12 12 10 11 12 14 15 15 16 18 18 17 18 20 25 27 31 37 38 43 44 41 42 50 57 55 55 59 58 58 55 53 51 49 44
Wind_Direction
261 265 265 263 264 267 271 261 271 266 263 258 253 251 252 253 254 255 256 257 258 261 263 265 267 272 278 285 294 304 307 300 302 302 304 303 300 293 291 288 283 259 261
259 261 263 265 266 268 267 265 266 264 260 253 251 249 246 248 252 253 253 255 257 256 260 263 266 269 272 277 283 291 303 306 294 296 298 300 298 295 289 286 280 274 258
258 260 258 261 264 263 259 260 261 257 256 258 259 253 242 245 248 250 251 251 251 257 257 259 263 266 269 272 278 285 293 303 299 289 293 294 295 295 293 288 282 279 276
252 256 258 257 258 257 258 258 261 248 253 249 261 264 256 247 250 251 252 251 255 256 257 259 265 264 268 271 274 279 286 294 303 290 284 289 288 290 291 288 281 280 278
253 248 249 257 258 260 260 257 260 258 248 254 255 262 261 263 250 250 251 250 251 254 256 262 261 261 264 268 271 274 279 285 295 295 280 284 286 284 287 283 282 280 278
255 255 254 251 250 255 255 252 256 249 247 247 256 253 256 259 260 254 253 254 255 255 259 261 260 262 263 266 269 271 274 278 286 297 281 279 283 280 281 283 282 279 279
256 254 254 254 252 249 253 254 246 244 255 242 251 252 252 253 253 257 254 256 259 256 256 259 261 262 262 262 263 267 268 273 279 294 284 276 280 277 273 277 279 282 272
258 254 253 253 253 252 248 242 245 244 248 251 239 243 243 251 249 246 246 253 248 248 254 257 255 260 273 258 259 260 264 268 270 285 282 277 278 273 268 271 276 277 273
261 260 257 251 251 253 252 251 253 251 244 240 242 241 224 239 245 243 242 242 247 251 254 253 254 265 262 267 273 257 259 261 263 275 279 272 275 270 265 266 266 267 272
260 258 258 260 256 251 251 251 250 252 252 255 257 257 253 255 267 246 244 243 249 255 256 254 256 257 260 265 266 260 257 257 256 264 277 270 271 271 264 262 262 260 267
261 257 256 257 256 256 255 256 255 255 255 254 253 251 251 252 256 252 254 249 255 255 249 251 249 249 251 257 256 255 253 251 252 258 269 269 267 266 263 259 261 262 266
263 256 255 253 253 253 253 252 253 254 253 248 250 252 252 255 251 252 243 253 253 256 247 246 245 246 248 250 251 248 246 243 250 254 260 267 265 264 261 259 259 262 266
264 255 255 249 251 249 248 251 250 246 248 244 251 251 251 250 252 255 257 258 259 256 247 240 236 241 244 247 248 247 247 244 247 247 249 257 263 262 259 258 257 257 262
265 258 255 252 250 247 248 248 248 248 241 245 254 247 244 245 241 251 253 251 250 251 255 258 230 232 239 243 245 250 247 246 246 243 245 247 256 258 258 252 253 257 258
269 267 265 259 251 246 244 245 248 249 245 248 251 247 243 238 242 248 246 243 240 240 241 246 248 233 239 243 249 246 244 243 241 243 241 242 247 253 255 252 251 254 255
285 274 264 262 257 250 248 246 244 245 239 238 244 245 243 246 246 248 242 239 238 234 234 235 239 240 243 245 245 243 241 234 238 239 240 241 242 246 250 250 248 251 251
285 279 273 266 259 255 252 246 244 247 246 245 244 248 248 248 248 247 244 242 240 240 241 239 235 233 229 229 234 234 239 238 238 234 237 240 241 242 245 249 246 247 248
292 279 271 266 264 261 257 253 250 247 247 247 248 249 250 251 251 250 248 246 243 243 239 235 233 233 235 234 229 226 231 232 231 228 233 236 237 237 243 246 246 243 244
296 285 277 272 270 260 256 256 256 254 253 253 251 250 251 252 253 253 251 250 248 244 238 233 233 235 235 234 236 235 234 232 231 229 225 230 231 233 238 241 242 239 239
300 300 286 273 275 273 267 263 258 253 249 251 256 255 251 248 255 257 255 252 251 247 243 231 229 230 232 237 238 238 238 238 235 233 229 230 234 236 237 238 238 238 237
297 299 301 263 266 285 285 257 251 245 242 247 248 251 255 258 255 250 250 253 252 246 241 226 224 227 227 233 235 236 236 240 241 235 235 233 232 232 234 234 235 236 235
304 299 300 273 260 271 272 270 258 251 246 246 255 253 255 255 253 247 241 241 242 242 228 221 225 227 224 225 228 231 233 234 235 233 234 236 233 230 230 230 232 235 233
343 328 321 267 284 283 274 274 273 270 272 263 254 248 247 252 250 245 241 234 225 218 219 218 219 219 215 221 225 226 231 232 233 227 225 222 227 227 228 230 229 232 235
30 34 36 20 333 308 275 276 285 286 279 261 237 237 253 258 253 247 247 241 235 229 222 218 215 216 219 223 230 236 238 234 228 224 222 224 222 224 227 228 227 230 230
25 41 26 9 0 337 304 294 298 288 278 259 249 250 249 245 239 239 244 244 240 238 237 236 230 225 225 227 228 232 234 231 227 221 219 220 223 225 225 223 222 221 219
358 351 342 333 340 331 318 301 298 301 299 276 256 245 244 240 241 245 247 248 246 243 237 236 233 232 231 234 242 245 238 234 230 223 214 216 215 214 215 214 212 210 213
Height
5764 5765 5766 5768 5769 5769 5773 5775 5776 5778 5779 5782 5783 5786 5788 5789 5791 5794 5796 5796 5797 5799 5800 5801 5802 5803 5804 5804 5804 5804 5803 5804 5804 5802 5801 5800 5799 5798 5797 5797 5795 5795 5796
5749 5750 5752 5753 5754 5759 5761 5762 5761 5763 5764 5767 5770 5772 5775 5778 5780 5783 5784 5786 5787 5789 5790 5792 5794 5796 5798 5798 5798 5798 5798 5797 5798 5798 5796 5796 5795 5794 5793 5792 5791 5791 5792
5734 5735 5737 5740 5743 5744 5747 5749 5750 5750 5749 5753 5755 5757 5759 5765 5768 5769 5771 5774 5776 5778 5782 5784 5786 5788 5790 5791 5791 5791 5791 5791 5791 5791 5791 5790 5790 5789 5789 5787 5787 5786 5785
5716 5718 5721 5723 5726 5729 5731 5734 5736 5736 5736 5739 5742 5744 5746 5750 5754 5758 5760 5763 5765 5768 5772 5775 5777 5780 5781 5783 5784 5784 5784 5785 5784 5784 5785 5785 5784 5783 5784 5783 5782 5781 5780
5696 5699 5703 5706 5708 5711 5715 5719 5720 5723 5725 5728 5729 5731 5734 5739 5740 5744 5746 5750 5753 5757 5761 5764 5766 5769 5772 5773 5775 5777 5777 5778 5778 5778 5778 5778 5777 5777 5778 5777 5777 5776 5775
5676 5678 5681 5686 5688 5693 5695 5700 5702 5703 5708 5712 5716 5719 5721 5725 5728 5730 5733 5737 5741 5745 5750 5753 5756 5758 5760 5763 5765 5768 5769 5770 5770 5771 5771 5771 5771 5771 5772 5772 5772 5771 5771
5653 5656 5658 5662 5667 5672 5677 5681 5684 5682 5687 5694 5699 5700 5705 5711 5714 5716 5720 5723 5729 5734 5738 5740 5743 5745 5748 5750 5754 5758 5760 5761 5763 5764 5763 5764 5764 5765 5767 5766 5766 5767 5767
5630 5632 5635 5640 5644 5649 5657 5661 5662 5668 5671 5674 5678 5679 5688 5696 5701 5703 5706 5710 5715 5721 5725 5729 5731 5734 5737 5740 5744 5746 5750 5752 5754 5756 5757 5757 5758 5758 5761 5762 5762 5763 5763
5608 5609 5610 5615 5620 5625 5630 5637 5641 5648 5655 5654 5661 5657 5662 5678 5684 5687 5692 5697 5703 5709 5713 5717 5720 5723 5727 5730 5733 5736 5740 5743 5746 5748 5749 5750 5751 5753 5754 5756 5757 5759 5759
5584 5586 5588 5590 5595 5601 5606 5612 5617 5624 5631 5634 5643 5649 5653 5658 5663 5672 5677 5683 5689 5693 5699 5703 5709 5713 5715 5718 5722 5725 5730 5734 5736 5739 5742 5744 5745 5747 5748 5750 5751 5753 5754
5563 5565 5568 5570 5573 5578 5583 5589 5595 5601 5608 5615 5621 5629 5636 5645 5649 5656 5661 5666 5673 5679 5685 5691 5697 5700 5703 5707 5711 5714 5720 5723 5727 5730 5733 5736 5738 5740 5742 5743 5745 5747 5748
5542 5545 5549 5552 5556 5560 5564 5570 5575 5579 5587 5593 5599 5606 5615 5622 5629 5637 5642 5646 5652 5662 5668 5675 5682 5684 5689 5696 5700 5703 5709 5713 5718 5721 5724 5727 5730 5732 5735 5737 5739 5741 5743
5524 5527 5531 5533 5537 5542 5546 5551 5556 5561 5567 5574 5579 5588 5595 5602 5609 5615 5622 5626 5632 5645 5650 5657 5662 5669 5676 5682 5687 5693 5697 5703 5706 5711 5715 5717 5721 5725 5727 5730 5732 5735 5737
5511 5512 5514 5517 5520 5524 5529 5534 5539 5544 5550 5557 5561 5567 5574 5579 5587 5593 5599 5605 5611 5623 5631 5638 5645 5653 5660 5667 5673 5682 5686 5691 5697 5699 5705 5707 5710 5716 5720 5722 5726 5728 5731
5498 5499 5499 5500 5504 5507 5512 5517 5521 5527 5532 5539 5546 5550 5555 5563 5570 5572 5577 5585 5593 5600 5606 5616 5627 5636 5644 5652 5659 5667 5673 5677 5684 5689 5694 5697 5701 5705 5711 5715 5718 5721 5724
5487 5487 5487 5488 5489 5492 5495 5500 5504 5510 5516 5521 5526 5532 5538 5545 5549 5554 5559 5565 5573 5578 5584 5595 5605 5615 5627 5635 5643 5650 5657 5662 5668 5676 5681 5686 5690 5695 5700 5706 5709 5713 5716
5479 5478 5477 5477 5479 5480 5482 5484 5490 5494 5498 5503 5508 5513 5518 5526 5529 5535 5540 5544 5549 5556 5569 5577 5584 5594 5603 5612 5622 5631 5641 5647 5653 5660 5667 5674 5680 5685 5689 5695 5700 5704 5708
5472 5471 5470 5469 5469 5470 5472 5474 5477 5480 5483 5487 5491 5495 5499 5503 5508 5512 5516 5519 5526 5534 5547 5557 5566 5574 5583 5591 5599 5608 5618 5627 5635 5642 5652 5662 5668 5673 5678 5684 5690 5695 5699
5465 5464 5463 5462 5462 5462 5463 5464 5466 5469 5472 5475 5477 5480 5483 5485 5487 5490 5492 5494 5500 5509 5520 5531 5543 5552 5562 5571 5581 5587 5595 5607 5615 5625 5634 5646 5654 5660 5667 5671 5678 5684 5689
5459 5456 5455 5455 5455 5455 5455 5456 5457 5459 5462 5464 5466 5468 5467 5470 5473 5475 5476 5477 5480 5485 5492 5506 5519 5529 5539 5549 5559 5567 5575 5585 5597 5606 5616 5629 5637 5646 5653 5659 5665 5672 5678
5452 5450 5447 5447 5449 5449 5448 5448 5449 5451 5454 5456 5457 5458 5458 5460 5462 5463 5463 5463 5464 5466 5470 5481 5497 5509 5521 5531 5539 5548 5558 5568 5578 5588 5600 5611 5620 5631 5639 5646 5652 5659 5666
5446 5444 5442 5442 5444 5445 5445 5445 5446 5446 5448 5449 5450 5451 5452 5453 5454 5454 5454 5454 5454 5456 5461 5470 5481 5493 5506 5516 5524 5532 5542 5551 5561 5571 5583 5594 5605 5615 5624 5632 5639 5646 5654
5442 5441 5440 5441 5442 5442 5442 5443 5443 5443 5443 5442 5443 5444 5445 5446 5447 5448 5448 5449 5450 5452 5455 5461 5469 5478 5489 5499 5509 5519 5528 5537 5545 5555 5566 5577 5589 5600 5610 5618 5626 5633 5641
5445 5443 5442 5441 5441 5440 5440 5440 5440 5439 5438 5438 5439 5440 5441 5441 5442 5443 5444 5445 5448 5450 5453 5457 5464 5471 5478 5487 5496 5504 5512 5519 5528 5538 5549 5560 5573 5585 5595 5604 5612 5620 5629
5448 5446 5445 5443 5442 5441 5439 5438 5437 5435 5435 5434 5434 5435 5436 5437 5438 5439 5440 5442 5444 5446 5450 5454 5458 5463 5470 5477 5484 5490 5497 5503 5511 5522 5533 5545 5558 5570 5581 5590 5599 5609 5618
5450 5447 5445 5442 5441 5439 5437 5435 5434 5432 5431 5430 5429 5429 5430 5431 5432 5434 5436 5438 5440 5442 5445 5448 5452 5456 5459 5464 5469 5473 5479 5486 5496 5507 5519 5530 5545 5557 5568 5578 5588 5599 5608